| time (UTC) | temp F | wind direction | speed MPH | gust MPH | rain 1hr in | rain 24hr in | rain mn in | humidity % | barometer mb |
| 20260509220754 | 68 | 360 | 6.0 | 12.0 | 0.00 | 0.00 | 0.00 | 50 | 1009.7 |
| 20260509210736 | 67 | 360 | 1.0 | 5.0 | 0.00 | 0.00 | 0.00 | 56 | 1009.5 |
| 20260509200749 | 67 | 360 | 2.0 | 5.0 | 0.00 | 0.00 | 0.00 | 55 | 1009.3 |
| 20260509190727 | 69 | 360 | 2.0 | 5.0 | 0.00 | 0.00 | 0.00 | 49 | 1009.4 |
| 20260509180738 | 64 | 360 | 1.0 | 4.0 | 0.00 | 0.00 | 0.00 | 55 | 1010.1 |
| 20260509170729 | 63 | 360 | 2.0 | 4.0 | 0.00 | 0.00 | 0.00 | 57 | 1010.7 |
| 20260509160723 | 61 | 63 | 4.0 | 6.0 | 0.00 | 0.00 | 0.00 | 59 | 1011.2 |
| 20260509150720 | 60 | 49 | 4.0 | 10.0 | 0.00 | 0.00 | 0.00 | 63 | 1011.3 |
| 20260509140741 | 58 | 15 | 1.0 | 5.0 | 0.00 | 0.00 | 0.00 | 70 | 1011.6 |
| 20260509130735 | 55 | 348 | 2.0 | 5.0 | 0.00 | 0.00 | 0.00 | 78 | 1011.4 |
| 20260509120735 | 52 | 282 | 0.0 | 1.0 | 0.00 | 0.00 | 0.00 | 77 | 1011.6 |
| 20260509110757 | 51 | 282 | 0.0 | 2.0 | 0.00 | 0.00 | 0.00 | 81 | 1011.4 |
| 20260509100746 | 51 | 282 | 0.0 | 0.0 | 0.00 | 0.00 | 0.00 | 77 | 1011.2 |
| 20260509090730 | 51 | 282 | 0.0 | 0.0 | 0.00 | 0.00 | 0.00 | 78 | 1011.1 |
| 20260509080724 | 52 | 282 | 0.0 | 0.0 | 0.00 | 0.00 | 0.00 | 74 | 1011.4 |
| 20260509070730 | 52 | 282 | 0.0 | 2.0 | 0.00 | 0.00 | 0.00 | 76 | 1011.6 |
| 20260509060720 | 52 | 282 | 0.0 | 0.0 | 0.00 | 0.00 | 0.00 | 73 | 1011.7 |
| 20260509050728 | 55 | 360 | 0.0 | 0.0 | 0.00 | 0.00 | 0.00 | 67 | 1012.2 |
| 20260509040722 | 55 | 360 | 0.0 | 0.0 | 0.00 | 0.00 | 0.00 | 65 | 1012.1 |
| 20260509030737 | 56 | 360 | 0.0 | 0.0 | 0.00 | 0.00 | 0.00 | 59 | 1012.2 |
| 20260509020734 | 57 | 360 | 0.0 | 0.0 | 0.00 | 0.00 | 0.00 | 55 | 1012.2 |
| 20260509010734 | 58 | 360 | 0.0 | 4.0 | 0.00 | 0.00 | 0.00 | 53 | 1011.9 |
| 20260509000743 | 63 | 360 | 2.0 | 5.0 | 0.00 | 0.00 | 0.00 | 43 | 1011.9 |
| 20260508230735 | 67 | 360 | 6.0 | 10.0 | 0.00 | 0.00 | 0.00 | 38 | 1011.4 |